Simultaneous Nadir Overpasses (SNOs) Predictions

Prediction of SNOs between LANDSAT-8 and METOP-B Satellite Orbit:

Table of predicted SNOs for the next 14.0 days since TLE Epoch: 2/13/2021
Index Date (LANDSAT-8) Time (LANDSAT-8) Lat,Lon (LANDSAT-8) SZA (LANDSAT-8 ) Date (METOP-B) Time (METOP-B) Lat,Lon (METOP-B) SZA (METOP-B ) Distance(km) Time Diff (sec)
1 02/13/2021 22:15:17 81.12,-114.15 95.78 02/13/2021 22:14:10 81.12,-114.13 95.76 0.59 67
2 02/13/2021 23:04:43 -81.14, 53.75 84.20 02/13/2021 23:04:50 -81.14, 53.73 84.20 0.51 7
3 02/16/2021 17:49:32 81.11, -47.94 94.79 02/16/2021 17:48:32 81.11, -47.92 94.77 0.57 60
4 02/16/2021 18:38:58 -81.13, 119.99 85.19 02/16/2021 18:39:12 -81.13, 119.97 85.18 0.54 14
5 02/19/2021 13:23:45 81.11, 18.60 93.82 02/19/2021 13:22:52 81.12, 18.66 93.80 1.05 53
6 02/19/2021 14:13:11 -81.13,-173.45 86.16 02/19/2021 14:13:32 -81.14,-173.43 86.14 0.48 21
7 02/22/2021 08:57:59 81.12, 85.10 92.82 02/22/2021 08:57:13 81.12, 85.22 92.82 1.99 46
8 02/22/2021 09:47:25 -81.14,-106.92 87.15 02/22/2021 09:47:53 -81.14,-106.84 87.13 1.30 28
9 02/25/2021 04:32:13 81.12, 151.58 91.80 02/25/2021 04:31:34 81.13, 151.77 91.81 3.30 39



Historial Predications of SNOs between LANDSAT-8 and METOP-B
